Hourly Weather Alifanov

Today, 26 November, Thursday

Time Temperature Precipitation Wind Pressure Humidity
00:00 +1°C° 0.1 mm 2 mps 759 mmHg 97%
01:00 -1°C° 0 mm 2 mps 760 mmHg 95%
02:00 -1°C° 0 mm 2 mps 760 mmHg 93%
03:00 -2°C° 0 mm 2 mps 760 mmHg 90%
04:00 -2°C° 0 mm 2 mps 760 mmHg 89%
05:00 -3°C° 0 mm 2 mps 761 mmHg 88%
06:00 -3°C° 0 mm 2 mps 761 mmHg 87%
07:00 -3°C° 0 mm 2 mps 761 mmHg 87%
08:00 -3°C° 0 mm 2 mps 762 mmHg 87%
09:00 -2°C° 0 mm 2 mps 762 mmHg 87%
10:00 -1°C° 0 mm 2 mps 762 mmHg 87%
11:00 -1°C° 0 mm 2 mps 762 mmHg 87%
12:00 +1°C° 0 mm 2 mps 762 mmHg 87%
13:00 +1°C° 0 mm 2 mps 762 mmHg 87%
14:00 +1°C° 0 mm 2 mps 763 mmHg 87%
15:00 +1°C° 0 mm 2 mps 763 mmHg 87%
16:00 +1°C° 0 mm 2 mps 763 mmHg 86%
17:00 -1°C° 0 mm 2 mps 764 mmHg 86%
18:00 -1°C° 0 mm 2 mps 764 mmHg 85%
19:00 +1°C° 0 mm 1 mps 764 mmHg 85%
20:00 +1°C° 0 mm 1 mps 764 mmHg 85%
21:00 +1°C° 0 mm 1 mps 764 mmHg 84%
22:00 0°C° 0 mm 1 mps 765 mmHg 85%
23:00 -3°C° 0 mm 2 mps 765 mmHg 85%

Tomorrow, 27 November, Friday

Time Temperature Precipitation Wind Pressure Humidity
00:00 -3°C° 0 mm 2 mps 765 mmHg 86%
01:00 -4°C° 0 mm 2 mps 765 mmHg 86%
02:00 -4°C° 0 mm 2 mps 765 mmHg 86%
03:00 -4°C° 0 mm 2 mps 765 mmHg 87%
04:00 -4°C° 0 mm 2 mps 765 mmHg 87%
05:00 -4°C° 0 mm 2 mps 765 mmHg 87%
06:00 -5°C° 0 mm 3 mps 765 mmHg 87%
07:00 -5°C° 0 mm 3 mps 765 mmHg 87%
08:00 -4°C° 0 mm 3 mps 765 mmHg 88%
09:00 -4°C° 0 mm 3 mps 765 mmHg 88%
10:00 -2°C° 0 mm 4 mps 765 mmHg 89%
11:00 -1°C° 0 mm 4 mps 765 mmHg 89%
12:00 0°C° 0 mm 4 mps 764 mmHg 90%
13:00 0°C° 0 mm 4 mps 764 mmHg 89%
14:00 0°C° 0 mm 4 mps 764 mmHg 89%
15:00 +1°C° 0 mm 4 mps 764 mmHg 88%
16:00 0°C° 0 mm 4 mps 764 mmHg 88%
17:00 -1°C° 0 mm 4 mps 764 mmHg 89%
18:00 0°C° 0 mm 3 mps 763 mmHg 89%
19:00 -1°C° 0 mm 4 mps 764 mmHg 89%
20:00 -1°C° 0 mm 4 mps 764 mmHg 89%
21:00 -1°C° 0 mm 4 mps 764 mmHg 90%
22:00 -1°C° 0 mm 4 mps 764 mmHg 89%
23:00 -1°C° 0 mm 4 mps 764 mmHg 89%

Day after tomorrow, 28 November, Saturday

Time Temperature Precipitation Wind Pressure Humidity
00:00 -1°C° 0 mm 4 mps 764 mmHg 89%
01:00 0°C° 0 mm 3 mps 764 mmHg 89%
02:00 +1°C° 0 mm 3 mps 764 mmHg 90%
03:00 +1°C° 0 mm 3 mps 764 mmHg 90%
04:00 +1°C° 0 mm 3 mps 764 mmHg 90%
05:00 0°C° 0 mm 4 mps 764 mmHg 90%
06:00 -1°C° 0 mm 4 mps 764 mmHg 89%
07:00 0°C° 0 mm 3 mps 764 mmHg 89%
08:00 0°C° 0 mm 3 mps 764 mmHg 89%
09:00 0°C° 0 mm 3 mps 764 mmHg 88%
10:00 +1°C° 0 mm 3 mps 764 mmHg 87%
11:00 +2°C° 0 mm 3 mps 764 mmHg 86%
12:00 +3°C° 0 mm 3 mps 764 mmHg 85%
13:00 +3°C° 0 mm 3 mps 764 mmHg 85%
14:00 +3°C° 0 mm 3 mps 764 mmHg 86%
15:00 +3°C° 0 mm 3 mps 764 mmHg 86%
16:00 +2°C° 0 mm 3 mps 764 mmHg 87%
17:00 +1°C° 0 mm 3 mps 764 mmHg 88%
18:00 -1°C° 0 mm 4 mps 764 mmHg 89%
19:00 0°C° 0 mm 4 mps 764 mmHg 91%
20:00 +1°C° 0 mm 5 mps 765 mmHg 93%
21:00 +1°C° 0 mm 5 mps 765 mmHg 95%
22:00 +2°C° 0 mm 5 mps 764 mmHg 94%
23:00 +2°C° 0 mm 5 mps 764 mmHg 94%

29 November, Sunday

Time Temperature Precipitation Wind Pressure Humidity
00:00 +2°C° 0 mm 5 mps 764 mmHg 93%
01:00 +3°C° 0 mm 5 mps 764 mmHg 93%
02:00 +3°C° 0 mm 5 mps 764 mmHg 93%
03:00 +4°C° 0 mm 6 mps 764 mmHg 93%
04:00 +4°C° 0 mm 6 mps 764 mmHg 93%
05:00 +4°C° 0 mm 6 mps 764 mmHg 93%
06:00 +4°C° 0 mm 6 mps 764 mmHg 93%
07:00 +4°C° 0 mm 7 mps 764 mmHg 91%
08:00 +5°C° 0 mm 7 mps 764 mmHg 89%
09:00 +5°C° 0 mm 8 mps 764 mmHg 88%
10:00 +5°C° 0 mm 8 mps 764 mmHg 84%
11:00 +5°C° 0 mm 8 mps 765 mmHg 81%
12:00 +5°C° 0 mm 8 mps 765 mmHg 78%
13:00 +5°C° 0 mm 8 mps 765 mmHg 77%
14:00 +5°C° 0 mm 8 mps 765 mmHg 77%
15:00 +5°C° 0 mm 8 mps 765 mmHg 76%
16:00 +4°C° 0 mm 7 mps 765 mmHg 78%
17:00 +4°C° 0 mm 7 mps 765 mmHg 79%
18:00 +4°C° 0 mm 7 mps 765 mmHg 80%
19:00 +4°C° 0 mm 7 mps 765 mmHg 80%
20:00 +4°C° 0 mm 7 mps 766 mmHg 80%
21:00 +4°C° 0 mm 7 mps 766 mmHg 80%
22:00 +4°C° 0 mm 7 mps 766 mmHg 80%
23:00 +4°C° 0 mm 7 mps 766 mmHg 80%

30 November, Monday

Time Temperature Precipitation Wind Pressure Humidity
00:00 +4°C° 0 mm 7 mps 766 mmHg 80%
01:00 +4°C° 0 mm 7 mps 766 mmHg 78%
02:00 +3°C° 0 mm 7 mps 766 mmHg 76%
03:00 +3°C° 0 mm 7 mps 766 mmHg 74%
04:00 +3°C° 0 mm 7 mps 766 mmHg 73%
05:00 +2°C° 0 mm 6 mps 766 mmHg 71%
06:00 +2°C° 0 mm 6 mps 766 mmHg 69%
07:00 +2°C° 0 mm 7 mps 767 mmHg 70%
08:00 +2°C° 0 mm 7 mps 767 mmHg 70%
09:00 +2°C° 0 mm 7 mps 768 mmHg 70%
10:00 +2°C° 0 mm 7 mps 767 mmHg 68%
11:00 +3°C° 0 mm 7 mps 767 mmHg 66%
12:00 +3°C° 0 mm 7 mps 767 mmHg 65%
13:00 +4°C° 0 mm 7 mps 767 mmHg 64%
14:00 +4°C° 0 mm 7 mps 767 mmHg 63%
15:00 +4°C° 0 mm 7 mps 767 mmHg 62%
16:00 +3°C° 0 mm 7 mps 767 mmHg 63%
17:00 +2°C° 0 mm 7 mps 767 mmHg 64%
18:00 +1°C° 0 mm 6 mps 767 mmHg 64%
19:00 +1°C° 0 mm 6 mps 767 mmHg 65%
20:00 +1°C° 0 mm 6 mps 768 mmHg 67%
21:00 -1°C° 0 mm 6 mps 768 mmHg 68%
22:00 -1°C° 0 mm 6 mps 768 mmHg 69%
23:00 -1°C° 0 mm 6 mps 768 mmHg 70%

1 December, Tuesday

Time Temperature Precipitation Wind Pressure Humidity
00:00 -1°C° 0 mm 6 mps 768 mmHg 70%
01:00 -1°C° 0 mm 6 mps 768 mmHg 71%
02:00 -1°C° 0 mm 6 mps 768 mmHg 72%
03:00 -2°C° 0 mm 6 mps 768 mmHg 73%
04:00 -2°C° 0 mm 7 mps 768 mmHg 74%
05:00 -2°C° 0 mm 7 mps 768 mmHg 75%
06:00 -2°C° 0 mm 7 mps 768 mmHg 76%
07:00 -2°C° 0 mm 7 mps 768 mmHg 76%
08:00 -2°C° 0 mm 7 mps 768 mmHg 76%
09:00 -4°C° 0 mm 8 mps 768 mmHg 76%
10:00 -2°C° 0 mm 8 mps 768 mmHg 74%
11:00 -2°C° 0 mm 8 mps 768 mmHg 72%
12:00 -2°C° 0 mm 8 mps 768 mmHg 70%
13:00 -2°C° 0 mm 8 mps 768 mmHg 69%
14:00 -1°C° 0 mm 8 mps 768 mmHg 68%
15:00 -1°C° 0 mm 8 mps 768 mmHg 67%
16:00 -2°C° 0 mm 8 mps 768 mmHg 68%
17:00 -2°C° 0 mm 8 mps 768 mmHg 68%
18:00 -4°C° 0 mm 8 mps 768 mmHg 69%
19:00 -4°C° 0 mm 8 mps 768 mmHg 69%
20:00 -4°C° 0 mm 8 mps 768 mmHg 69%
21:00 -4°C° 0 mm 8 mps 768 mmHg 69%
22:00 -5°C° 0 mm 8 mps 768 mmHg 70%
23:00 -4°C° 0 mm 7 mps 768 mmHg 71%
Show more